Simultaneous Nadir Overpasses (SNOs) Predictions

Prediction of SNOs between LANDSAT-8 and NOAA-19 Satellite Orbit:

Table of predicted SNOs for the next 14.0 days since TLE Epoch: 5/8/2015
Index Date (LANDSAT-8) Time (LANDSAT-8) Lat,Lon (LANDSAT-8) SZA (LANDSAT-8 ) Date (NOAA-19) Time (NOAA-19) Lat,Lon (NOAA-19) SZA (NOAA-19 ) Distance(km) Time Diff (sec)
1 05/10/2015 18:22:29 73.20, -94.53 55.44 05/10/2015 18:21:36 73.20, -94.48 55.44 1.70 53
2 05/10/2015 19:11:58 -73.13, 72.96 124.65 05/10/2015 19:12:37 -73.14, 72.90 124.63 2.15 39
3 05/12/2015 23:56:12 -73.18, 1.99 125.16 05/12/2015 23:56:01 -73.18, 1.99 125.15 0.58 11
4 05/13/2015 00:45:44 72.83, 168.94 54.48 05/13/2015 00:46:54 72.79, 170.12 54.46 39.04 70
5 05/15/2015 04:40:26 -73.23, -68.97 125.64 05/15/2015 04:39:25 -73.24, -68.94 125.63 1.19 61
6 05/15/2015 05:29:53 73.14, 98.49 54.27 05/15/2015 05:30:25 73.16, 98.48 54.29 2.16 32
7 05/17/2015 10:14:07 73.19, 27.53 53.81 05/17/2015 10:13:49 73.19, 27.59 53.81 1.96 18
8 05/17/2015 11:03:36 -73.13,-164.97 126.27 05/17/2015 11:04:48 -73.11,-164.98 126.28 1.52 72
9 05/19/2015 14:58:20 73.30, -43.33 53.44 05/19/2015 14:57:14 73.29, -43.43 53.42 3.75 66
10 05/19/2015 15:47:50 -73.18, 124.07 126.69 05/19/2015 15:48:12 -73.18, 124.05 126.69 0.57 22
11 05/21/2015 20:32:04 -73.24, 53.11 127.09 05/21/2015 20:31:36 -73.26, 53.07 127.07 2.65 28
